TimeCDT,TemperatureF,Dew PointF,Humidity,Sea Level PressureIn,VisibilityMPH,Wind Direction,Wind SpeedMPH,Gust SpeedMPH,PrecipitationIn,Events,Conditions,WindDirDegrees,DateUTC
12:53 AM,43.0,43.0,100,30.03,10.0,Calm,Calm,-,N/A,,Clear,0,2013-09-29 05:53:00
1:53 AM,41.0,39.9,96,30.04,10.0,South,4.6,-,N/A,,Clear,190,2013-09-29 06:53:00
2:53 AM,41.0,39.9,96,30.03,10.0,South,4.6,-,N/A,,Clear,180,2013-09-29 07:53:00
3:53 AM,39.9,39.0,97,30.03,10.0,South,4.6,-,N/A,,Clear,190,2013-09-29 08:53:00
4:53 AM,39.9,37.9,93,30.03,10.0,South,5.8,-,N/A,,Clear,170,2013-09-29 09:53:00
5:53 AM,41.0,39.0,93,30.03,10.0,SSW,5.8,-,N/A,,Clear,200,2013-09-29 10:53:00
6:53 AM,39.0,37.9,96,30.05,10.0,South,4.6,-,N/A,,Clear,190,2013-09-29 11:53:00
7:53 AM,44.1,42.1,93,30.05,10.0,South,4.6,-,N/A,,Clear,180,2013-09-29 12:53:00
8:53 AM,53.1,46.9,80,30.04,10.0,South,3.5,-,N/A,,Clear,170,2013-09-29 13:53:00
9:53 AM,60.1,46.9,62,30.04,10.0,SSW,13.8,-,N/A,,Clear,210,2013-09-29 14:53:00
10:53 AM,64.9,46.0,50,30.03,10.0,SSW,13.8,-,N/A,,Clear,210,2013-09-29 15:53:00
11:53 AM,69.1,44.1,40,30.02,10.0,SW,16.1,-,N/A,,Clear,220,2013-09-29 16:53:00
12:53 PM,73.0,44.1,35,29.99,10.0,SSW,13.8,-,N/A,,Clear,200,2013-09-29 17:53:00
1:53 PM,73.9,39.9,29,29.95,10.0,South,15.0,25.3,N/A,,Clear,190,2013-09-29 18:53:00
2:53 PM,75.0,41.0,29,29.93,10.0,South,12.7,24.2,N/A,,Clear,180,2013-09-29 19:53:00
3:53 PM,75.0,41.0,29,29.91,10.0,South,18.4,24.2,N/A,,Clear,180,2013-09-29 20:53:00
4:53 PM,73.9,41.0,30,29.90,10.0,South,20.7,26.5,N/A,,Clear,180,2013-09-29 21:53:00
5:53 PM,72.0,43.0,35,29.90,10.0,South,15.0,-,N/A,,Clear,180,2013-09-29 22:53:00
6:53 PM,66.0,44.1,45,29.90,10.0,South,11.5,-,N/A,,Clear,170,2013-09-29 23:53:00
7:53 PM,59.0,46.0,62,29.92,10.0,South,8.1,-,N/A,,Clear,170,2013-09-30 00:53:00
8:53 PM,55.9,46.0,69,29.92,10.0,South,9.2,-,N/A,,Clear,170,2013-09-30 01:53:00
9:53 PM,54.0,46.0,75,29.91,10.0,South,9.2,-,N/A,,Clear,170,2013-09-30 02:53:00
10:53 PM,50.0,45.0,83,29.91,10.0,South,8.1,-,N/A,,Clear,170,2013-09-30 03:53:00
11:53 PM,48.9,45.0,86,29.91,10.0,South,8.1,-,N/A,,Clear,170,2013-09-30 04:53:00